User: anonymous   Login
Location: Zagreb
(45.8000°N, 16.0000°E)
Time: 23:29:31
(UTC+01:00)
Language:

DX 1 - Orbit

View from above orbital plane
View from above orbital plane
View from above satellite
View from above satellite

Ground track
Ground track

The orbit data is extracted from the following two-line orbital elements,

1 40071U 14037C   20304.47165638  .00000148  00000-0  26423-4 0  9990
2 40071  98.4617 130.3843 0009617  66.4494 293.7733 14.81404608341241
Epoch (UTC): 30 October 2020 11:19:11
Eccentricity: 0.0009617
inclination: 98.4617°
perigee height: 618 km
apogee height: 631 km
right ascension of ascending node: 130.3843°
argument of perigee: 66.4494°
revolutions per day: 14.81404608
mean anomaly at epoch: 293.7733°
orbit number at epoch: 34124

The dashed part of the orbit path shows where the satellite is in the earth's shadow,  

DLR